Location: Izdebno
(52.6670°N, 16.2170°E)
Time: 04:09:16
(UTC+02:00)

SR - Pass Details

Date: 25 February 2024
Orbit: 577 x 862 km, 66.7° (Epoch: 22 April)

Event Time Altitude Azimuth Distance (km) Brightness Sun altitude
Rises 23:46:13 0° 319° (NW) 3,267 ? -46.5°
Enters shadow 23:47:25 - 318° (NW) 2,797 ? -46.5°
Reaches altitude 10° 23:48:44 10° 316° (NW) 2,290 - -46.5°
Maximum altitude 23:53:52 62° 237° (WSW) 796 - -46.6°
Drops below altitude 10° 23:58:33 10° 157° (SSE) 2,086 - -46.7°
Sets 00:00:52 0° 154° (SSE) 2,996 - -46.7°
